Hourly Data Report for September 24, 2017

All times are specified in Local Standard Time (LST). Add 1 hour to adjust for Daylight Saving Time where and when it is observed.

GRAND MANAN SAR CS
NEW BRUNSWICK

44°42'43.400" N
66°48'06.900" W
78.20 m
8101925
71030
XGM

Download Data

Hourly Data (September 2017)
Hourly Data Report for September 24, 2017
Temp Definition
°C
Dew Point Temp Definition
°C
Rel Hum Definition
%
Wind Dir Definition
10's deg

Wind Spd Definition
km/h
Visibility Definition
km
Stn Press Definition
kPa
Hmdx Definition


Wind Chill Definition


Weather Definition


TIME
00:00 14.9 14.4 97 33 4   100.71     LegendNANA
01:00 13.4 13.0 97 30 7   100.68     LegendNANA
02:00 12.6 12.1 97 31 7   100.66     LegendNANA
03:00 13.7 13.4 98 4 9   100.68     LegendNANA
04:00 13.6 13.2 97 7 4   100.74     LegendNANA
05:00 12.6 12.3 98 4 4   100.75     LegendNANA
06:00 13.4 13.2 98 7 8   100.80     LegendNANA
07:00 14.0 13.8 99 7 10   100.86     LegendNANA
08:00 16.1 15.0 93 10 4   100.87     LegendNANA
09:00 19.0 16.0 83 16 5   100.84     LegendNANA
10:00 22.8 16.9 69 20 9   100.79 28   LegendNANA
11:00 24.8 16.4 59 23 5   100.80 30   LegendNANA
12:00 26.0 14.2 48 22 11   100.75 29   LegendNANA
13:00 25.5 13.9 49 23 14   100.68 29   LegendNANA
14:00 24.9 14.0 51 23 17   100.67 28   LegendNANA
15:00 24.4 13.0 49 22 13   100.65 27   LegendNANA
16:00 24.5 14.0 52 23 11   100.62 28   LegendNANA
17:00 21.2 14.4 65 23 12   100.64 25   LegendNANA
18:00 19.4 15.4 78 23 10   100.66     LegendNANA
19:00 18.5 15.6 83 24 11   100.70     LegendNANA
20:00 19.0 14.8 77 25 11   100.72     LegendNANA
21:00 19.6 15.4 77 26 10   100.76     LegendNANA
22:00 19.2 16.1 82 25 4   100.74     LegendNANA
23:00 18.0 16.2 89 23 5   100.73     LegendNANA

Notes on Data Quality.

Legend

  • E = Estimated
  • M = Missing
  • NA = Not Available
  • ‡ = Partner data that is not subject to review by the National Climate Archives
Date modified: